Location: ?ejeti?ky
(50.4060°N, 14.9016°E)
Time: 12:34:05
(UTC+00:00)

ISS - Pass Details

Date: 07 December 2021
Orbit: 413 x 422 km, 51.6° (Epoch: 18 January)

Event Time Altitude Azimuth Distance (km) Brightness Sun altitude
Rises 16:04:53 0° 286° (WNW) 2,386 0.9 -10.2°
Reaches altitude 10° 16:07:06 10° 277° (W) 1,516 0.1 -10.5°
Maximum altitude 16:10:13 34° 211° (SSW) 723 -2.0 -11.0°
Drops below altitude 10° 16:13:18 10° 145° (SE) 1,504 -1.1 -11.4°
Enters shadow 16:16:12 -2° 134° (SE) 2,641 0.1 -11.9°
